Lid_Strength_Index
7 11 13 12 10 11 12 13 15 10 9 9 10 10 10 9 7 9 8 10 10 10 10 9 9 7 7 7 6 4 5 7 8 9 10 10 11 10 9 9 8 8 8 8
9 13 9 8 9 11 12 15 16 14 10 11 10 11 9 9 9 8 8 7 8 10 9 9 9 8 8 10 10 8 7 7 8 9 10 10 10 9 9 9 8 8 9 9
10 9 7 9 11 13 13 15 16 16 14 11 10 13 12 11 10 9 9 8 8 9 10 11 10 9 9 10 10 10 10 10 10 11 10 10 10 9 9 9 9 9 9 10
10 7 9 10 11 11 15 11 12 15 16 18 11 18 13 12 13 12 10 10 10 10 10 11 11 11 11 11 11 11 11 11 10 9 10 8 9 11 10 10 10 10 10 11
10 9 10 12 11 9 12 10 12 12 15 17 16 17 13 11 13 12 11 10 11 12 12 12 12 12 12 11 11 11 11 11 10 9 9 9 10 10 10 10 10 11 10 11
9 6 8 9 8 8 9 11 12 12 14 19 16 17 16 13 11 10 10 10 11 12 12 12 12 12 13 12 12 11 11 11 10 9 9 9 10 11 10 11 11 11 11 11
10 10 8 7 11 9 10 14 19 20 20 20 14 17 15 10 9 9 10 11 11 12 12 13 13 13 13 13 13 12 12 12 11 11 11 11 11 11 11 11 11 11 12 11
14 16 10 8 9 11 12 13 17 22 21 19 15 19 15 11 10 8 9 10 11 12 12 13 13 13 13 13 13 12 12 13 12 12 12 12 12 12 12 12 11 11 11 11
12 13 8 8 8 8 12 15 11 16 16 18 16 14 11 12 11 10 11 12 13 13 13 13 12 13 13 13 13 13 13 13 13 13 13 13 12 12 12 12 11 11 10 11
9 14 9 8 8 8 10 9 15 15 20 22 17 16 14 14 11 10 11 12 12 12 13 13 13 12 13 13 13 13 13 13 13 13 13 13 13 12 12 12 12 12 12 12
8 11 12 10 11 12 12 13 12 12 15 18 19 16 11 10 10 10 10 10 10 12 13 13 13 13 13 13 13 13 14 14 13 13 13 13 13 13 12 12 12 12 12 12
8 11 14 13 9 8 10 11 12 16 18 15 16 15 13 12 10 9 10 10 10 11 12 12 13 13 13 13 13 13 13 13 13 13 13 13 13 13 13 13 13 13 13 13
8 12 17 15 13 10 12 11 11 11 13 17 18 15 12 13 12 9 10 10 10 11 12 12 12 13 13 13 13 13 13 13 13 13 13 13 13 13 13 13 13 13 14 14
8 11 14 17 15 12 13 12 11 12 16 15 15 13 12 12 11 11 11 11 11 12 12 13 13 13 13 13 13 13 13 13 13 13 13 13 13 13 13 13 14 14 13 14
10 14 12 12 12 11 12 12 11 13 12 15 13 13 11 11 11 10 9 10 11 12 13 13 13 13 13 13 13 13 13 13 13 13 13 13 13 13 14 13 13 13 13 13
9 14 12 14 12 12 14 12 11 11 12 12 12 12 10 10 9 10 10 11 11 12 12 12 12 13 13 13 13 13 13 13 13 13 13 13 14 14 14 13 13 13 13 14
12 12 14 16 13 13 16 13 11 11 10 10 14 10 11 12 11 10 10 10 11 11 11 12 12 13 13 12 12 13 13 13 13 13 13 14 14 14 14 13 13 13 14 13
13 13 12 15 14 19 12 11 10 11 10 8 9 8 10 10 10 9 8 9 10 10 11 12 12 12 12 12 12 12 12 13 13 13 13 14 14 14 13 13 14 13 13 13
11 12 14 16 16 14 13 13 11 12 12 8 9 9 10 11 11 11 9 9 9 10 10 10 10 11 11 12 12 12 13 13 13 13 14 14 14 14 14 14 14 13 13 13
11 12 13 14 18 19 13 11 10 11 14 7 7 8 10 10 11 9 10 9 9 9 10 10 11 11 11 12 12 13 13 14 14 13 13 13 13 13 14 13 13 13 13 14
14 13 15 14 16 13 12 10 10 15 13 10 7 8 9 10 9 10 9 9 9 9 10 10 10 11 11 12 13 13 14 14 13 13 13 13 13 13 13 12 13 13 14 14
15 14 14 17 17 16 12 12 12 11 11 12 9 9 9 9 10 10 9 9 9 10 10 10 11 11 11 12 12 13 13 12 12 12 13 13 13 13 13 14 14 15 15 16
17 13 13 14 12 11 11 12 10 11 11 11 11 9 9 9 10 10 10 10 9 9 10 10 10 11 11 12 11 12 12 12 12 13 14 14 14 14 14 14 15 15 16 17
14 13 14 14 11 12 11 11 11 10 11 10 10 10 9 9 10 10 10 10 10 10 11 11 11 12 12 12 13 12 12 12 14 14 15 14 15 14 15 15 15 15 15 16
13 14 14 14 12 11 11 11 10 10 10 11 11 11 10 9 10 10 11 11 11 11 11 11 11 11 12 12 13 13 14 14 14 14 14 14 13 15 15 16 15 16 15 15
13 13 14 13 11 11 11 10 9 10 10 11 11 11 11 10 10 10 11 11 11 11 12 13 13 13 13 13 14 14 14 15 15 14 14 13 14 14 15 15 15 14 14 14